logo
App data

Sky To Fly: Faster Than Wind

Sky to Fly: Faster Than Wind is a stunningly beautiful steampunk-themed runner about saving a sky-city from cruel pirates. Play on 20+ different levels, upgrade your ship and discover the mysteries of the malicious marauders.
Store | Hub | SteamDB
Developer: AIVIK LLC Publisher: Absolutist Ltd.
Genre: Action, Adventure, Indie, Racing, Simulation, Sports
Languages: English, German, Russian
Tags: Action (25), Adventure (24), Racing (24), Indie (23), Simulation (22), Sports (22), Steampunk (10)
Category: Single-player, Steam Trading Cards, Steam Cloud
Release date: Mar 25, 2016 (previously in Early Access)
Price: $2.99 25%
Score rank: 26% Userscore: 66% Old userscore: 71%
Owners: 0 .. 20,000
Followers: 719
Playtime total: 03:26 (average) 03:54 (median)

Steam Spy is still in beta, so expect major bugs.

Owners data:

Access restricted.

This feature is only available to users with special access rights. Sorry.

If you want to proceed, you need to register or log in first and then back Steam Spy on Patreon. Look for Indie or Pro pledge.

Don't forget to use the same email as on Steam Spy!

Audience in 2 weeks:

Access restricted.

This feature is only available to users with special access rights. Sorry.

If you want to proceed, you need to register or log in first and then back Steam Spy on Patreon. Look for Indie or Pro pledge.

Don't forget to use the same email as on Steam Spy!

Peak daily concurrent players:

CCU data courtesy of SteamDB. Used with permission.

Hourly concurrent players:

YouTube:

The views data is based on top 50 videos uploaded last week. Actual number of views might be more than the number shown.

The displayed number of videos uploaded yesterday is limited to 50, so if there were more videos uploaded, the number will still show 50.

If the game has commonly used word as its name (like "FEAR" or "Volume") its number of Youtube views might be wrong.

Games similar to this one:

# Game Release date
Price
Score rank
(Userscore / Metascore)
Owners
Players
Playtime (Median)
1 Militia Dec 2, 2015 $2.9999% (98%)0 .. 20,0000%00:00 (00:00)
2 Little Big Adventure 2 Oct 20, 2015 $1.9999% (98%)20,000 .. 50,0000%00:00 (00:00)
3 Dungeon Warfare Nov 4, 2015 $3.3997% (97%)20,000 .. 50,0000%00:00 (00:00)
4 Seven Kingdoms: Ancient Adversaries Mar 22, 2016 $2.39N/A (N/A)0 .. 20,0000%00:00 (00:00)
5 Imperium Galactica Jan 19, 2017 $1.24N/A (N/A)0 .. 20,0000%00:00 (00:00)
6 Defend The Highlands Nov 6, 2015 $2.4995% (96%)100,000 .. 200,0000.61%05:03 (03:22)
7 Voodoo Vince: Remastered Apr 17, 2017 $14.9995% (96%/63%)0 .. 20,0000%00:00 (00:00)
8 Darknet Jun 8, 2017 $9.89N/A (N/A)0 .. 20,0000%00:00 (00:00)
9 Templar Battleforce Sep 21, 2015 $4.9993% (95%)20,000 .. 50,0000%00:00 (00:00)
10 Chicken Invaders 2 Mar 4, 2016 $1.9993% (95%)0 .. 20,0000%00:00 (00:00)
11 Outcast 1.1 Dec 18, 2014 $1.7993% (95%)20,000 .. 50,0000%00:00 (00:00)
12 PixelJunk Shooter Nov 11, 2013 $1.3493% (95%/73%)100,000 .. 200,0000%00:00 (00:00)
13 Hegemony Gold: Wars of Ancient Greece Mar 30, 2012 $4.9493% (95%)20,000 .. 50,0000%00:00 (00:00)
14 Kalimba Apr 22, 2015 $2.4990% (94%/81%)0 .. 20,0000%00:00 (00:00)
15 Gold Rush! Classic Jul 25, 2014 $1.4990% (94%)200,000 .. 500,0001.98%22:30 (04:56)
16 Audio Arena Jul 25, 2016 $1.04N/A (N/A)0 .. 20,0000%00:00 (00:00)
17 Majesty Gold HD Mar 23, 2001 $2.4990% (94%)100,000 .. 200,0000%00:00 (00:00)
18 Run or Die Dec 11, 2014 $0.4990% (94%)0 .. 20,0000%00:00 (00:00)
19 Stick it to The Man! Dec 13, 2013 $2.7990% (94%/83%)20,000 .. 50,0001.41%01:41 (00:33)
20 Supercharged Robot VULKAISER Jun 4, 2015 $2.4990% (94%)20,000 .. 50,0000%00:00 (00:00)
21 Neon Chrome Apr 28, 2016 $4.4990% (94%/74%)200,000 .. 500,0001.04%00:26 (00:12)
22 Flywrench Aug 24, 2015 $3.4990% (94%)0 .. 20,0000%00:00 (00:00)
23 Handsome Mr. Frog Aug 8, 2016 $0.4990% (94%)0 .. 20,0000%00:00 (00:00)
24 Pharaoh Rebirth+ Mar 17, 2016 $2.9987% (93%)0 .. 20,0000%00:00 (00:00)
25 Super Trench Attack! Jul 24, 2014 $0.4987% (93%)50,000 .. 100,0000.52%04:45 (01:35)
26 Major Mayhem Feb 24, 2014 $4.9987% (93%)20,000 .. 50,0000%00:00 (00:00)
27 Bleed Jul 3, 2013 $1.9987% (93%)100,000 .. 200,0000.69%04:03 (01:21)
28 Adventure in the Tower of Flight Dec 23, 2015 $1.9987% (93%)0 .. 20,0000%00:00 (00:00)
29 Kick Ass Commandos Nov 17, 2016 $4.9987% (93%)20,000 .. 50,0000%00:00 (00:00)
30 Eufloria HD Oct 14, 2014 $14.9987% (93%)200,000 .. 500,0000%00:00 (00:00)
31 Tallowmere Mar 3, 2015 $2.3987% (93%)20,000 .. 50,0000%00:00 (00:00)
32 Ys VI: The Ark of Napishtim Apr 28, 2015 $5.9983% (92%)50,000 .. 100,0000%00:00 (00:00)
33 Khet 2.0 Oct 1, 2014 $2.4983% (92%)50,000 .. 100,0000%00:00 (00:00)
34 Death Ray Manta SE Sep 17, 2015 $0.7983% (92%)20,000 .. 50,0000%00:00 (00:00)
35 Anarcute Jul 12, 2016 $5.9983% (92%/79%)0 .. 20,0007.14%05:20 (03:33)
36 Super Cyborg Jul 8, 2015 $1.9983% (92%)20,000 .. 50,0000%00:00 (00:00)
37 Battle Academy 2: Eastern Front Sep 12, 2014 $9.9983% (92%/78%)0 .. 20,0000%00:00 (00:00)
38 Knightmare Tower Jun 16, 2014 $0.9983% (92%)0 .. 20,0000%00:00 (00:00)
39 Great Big War Game Aug 28, 2012 $6.99N/A (N/A)0 .. 20,0000%00:00 (00:00)
40 The Juicer Sep 11, 2015 $0.4983% (92%)20,000 .. 50,0000%00:00 (00:00)
41 Below Kryll Sep 7, 2015 $0.9983% (92%)0 .. 20,0000%00:00 (00:00)
42 Blue Estate The Game Apr 8, 2015 $3.2479% (91%/59%)50,000 .. 100,0000%00:00 (00:00)
43 Armed with Wings: Rearmed Jun 1, 2017 $6.9979% (91%)20,000 .. 50,0000%00:00 (00:00)
44 Mad Bullets Jun 10, 2016 $1.9979% (91%)0 .. 20,0000%00:00 (00:00)
45 Angry Video Game Nerd II: ASSimilation Mar 29, 2016 $9.9979% (91%)20,000 .. 50,0000%00:00 (00:00)
46 Wars and Warriors: Joan of Arc Sep 3, 2015 $1.7479% (91%/60%)0 .. 20,0000%00:00 (00:00)
47 Miracle Fly Oct 26, 2015 $2.3979% (91%)20,000 .. 50,0000%00:00 (00:00)
48 Explosionade Sep 23, 2015 $3.99N/A (N/A)0 .. 20,0001.82%01:31 (00:30)
49 RIVE: Wreck, Hack, Die, Retry! Sep 13, 2016 $3.7479% (91%)200,000 .. 500,0000.8%01:37 (01:06)
50 Momodora III Jul 1, 2014 $1.9979% (91%)50,000 .. 100,0002.27%03:59 (02:39)
51 Demons with Shotguns Apr 25, 2016 $0.99N/A (N/A)0 .. 20,0000%00:00 (00:00)
52 Spider: Rite of the Shrouded Moon Aug 6, 2015 $2.9979% (91%)20,000 .. 50,0000%00:00 (00:00)
53 Dandy: Or a Brief Glimpse Into the Life of the Candy Alchemist Aug 4, 2015 $9.99N/A (N/A)0 .. 20,0000%00:00 (00:00)
54 Earth Defense Force: Insect Armageddon Dec 14, 2011 $9.9979% (91%/69%)50,000 .. 100,0001.33%10:07 (03:22)
55 Ittle Dew Jul 23, 2013 $4.9979% (91%/67%)100,000 .. 200,0000.45%01:10 (00:23)
56 Skulls of the Shogun Jul 29, 2013 $3.9979% (91%/72%)100,000 .. 200,0000%00:00 (00:00)
57 Clash of Puppets Dec 16, 2014 $2.9979% (91%)0 .. 20,0000%00:00 (00:00)
58 Ace of Seafood Apr 8, 2016 $5.9979% (91%)0 .. 20,0000%00:00 (00:00)
59 Valley Aug 24, 2016 $3.9979% (91%)100,000 .. 200,0004.67%02:40 (02:15)
60 Flashpoint Campaigns: Red Storm Player's Edition Oct 9, 2013 $14.4979% (91%)0 .. 20,0000%00:00 (00:00)
61 Near Death Aug 2, 2016 $3.7476% (90%/70%)0 .. 20,0000%00:00 (00:00)
62 Weird Hero Nov 18, 2016 $0.7476% (90%)0 .. 20,0000%00:00 (00:00)
63 Wild Guns Reloaded Jul 11, 2017 $9.9976% (90%)0 .. 20,0000%00:00 (00:00)
64 Swords and Soldiers HD Dec 2, 2010 $1.9976% (90%)50,000 .. 100,0001.93%00:22 (00:10)
65 Apocalypse: Party's Over May 30, 2016 $2.4976% (90%)0 .. 20,0000%00:00 (00:00)
66 Silent Storm Gold Edition Sep 9, 2004 $2.4976% (90%/83%)200,000 .. 500,0000.88%01:19 (00:26)
67 Headlander Jul 25, 2016 $5.9976% (90%/74%)100,000 .. 200,0000%00:00 (00:00)
68 Kohan: Ahriman's Gift Aug 24, 2011 $9.99N/A (N/A/79%)0 .. 20,0000%00:00 (00:00)
69 Superstatic Sep 15, 2015 $0.99N/A (N/A)0 .. 20,0000%00:00 (00:00)
70 Planet of the Eyes Aug 24, 2015 $2.4976% (90%/66%)50,000 .. 100,0000%00:00 (00:00)
71 Kohan II: Kings of War Sep 21, 2004 $9.9976% (90%/81%)20,000 .. 50,0000%00:00 (00:00)
72 Death's Hangover Jan 20, 2017 $0.4976% (90%)20,000 .. 50,0002.67%02:43 (01:48)
73 Sneaky Sneaky Nov 12, 2014 $4.9973% (89%/63%)0 .. 20,0000%00:00 (00:00)
74 Warhammer 40,000: Dawn of War – Winter Assault Jan 1, 2006 $3.2473% (89%)500,000 .. 1,000,0000.19%00:34 (00:11)
75 Fort Meow Jun 24, 2015 $1.5973% (89%)0 .. 20,0000%00:00 (00:00)
76 Command: Northern Inferno Oct 22, 2015 $9.79N/A (N/A)0 .. 20,0000%00:00 (00:00)
77 Codename: Panzers, Phase Two Feb 18, 2016 $3.74N/A (N/A/80%)20,000 .. 50,0000%00:00 (00:00)
78 Zombo Buster Rising Oct 2, 2016 $0.9973% (89%)0 .. 20,0000%00:00 (00:00)
79 Spectromancer Oct 15, 2008 $9.9973% (89%)20,000 .. 50,0000%00:00 (00:00)
80 Lethe - Episode One Aug 1, 2016 $2.9973% (89%)0 .. 20,0005.88%06:04 (05:22)
81 MoonBase Commander Aug 13, 2002 $1.4973% (89%/77%)20,000 .. 50,0000%00:00 (00:00)
82 Amaranthine Apr 6, 2016 $0.89N/A (N/A)0 .. 20,0000%00:00 (00:00)
83 Reverse Crawl Sep 24, 2015 $2.0373% (89%)20,000 .. 50,0000%00:00 (00:00)
84 Tcheco in the Castle of Lucio Jun 22, 2015 $0.4973% (89%)50,000 .. 100,0000%00:00 (00:00)
85 CastleStorm Jul 29, 2013 $2.4973% (89%/73%)100,000 .. 200,0000.55%01:13 (00:24)
86 Anodyne Mar 22, 2013 $3.3970% (88%/75%)100,000 .. 200,0000%00:00 (00:00)
87 Super Furball Apr 21, 2015 $0.91N/A (N/A)0 .. 20,0000%00:00 (00:00)
88 Greed Corp Dec 10, 2010 $9.9970% (88%/76%)200,000 .. 500,0000%00:00 (00:00)
89 Battlepillars Gold Edition Apr 28, 2014 $2.4970% (88%)20,000 .. 50,0000%00:00 (00:00)
90 The Fall May 30, 2014 $1.9970% (88%/76%)200,000 .. 500,0000.66%01:08 (00:45)
91 Avoid - Sensory Overload Apr 8, 2014 $0.9970% (88%)0 .. 20,0000%00:00 (00:00)
92 Atom Zombie Smasher Mar 14, 2011 $7.9970% (88%/75%)200,000 .. 500,0000%00:00 (00:00)
93 The Way May 20, 2016 $3.7470% (88%/67%)20,000 .. 50,0002.65%05:44 (05:43)
94 Graviteam Tactics: Mius-Front Mar 4, 2016 $26.2470% (88%)0 .. 20,0000%00:00 (00:00)
95 Lethal VR Nov 8, 2016 $3.7470% (88%/66%)0 .. 20,0000%00:00 (00:00)
96 Earn to Die 2 May 5, 2016 $4.9970% (88%)0 .. 20,0000%00:00 (00:00)
97 Blacksea Odyssey Jun 1, 2016 $4.9967% (87%/74%)0 .. 20,0000%00:00 (00:00)
98 Neon Shadow Aug 25, 2016 $4.99N/A (N/A)0 .. 20,0000%00:00 (00:00)
99 Bullet Sorrow VR Apr 17, 2017 $19.9967% (87%)0 .. 20,0000%00:00 (00:00)
100 Sang-Froid - Tales of Werewolves Apr 5, 2013 Free67% (87%/79%)200,000 .. 500,0000.41%00:34 (00:12)
101 The Tiny Tale 2 Jan 30, 2015 $1.74N/A (N/A)0 .. 20,0000%00:00 (00:00)
102 TRON 2.0 Oct 10, 2014 $3.4967% (87%/84%)50,000 .. 100,0000%00:00 (00:00)
103 Supreme Commander Feb 20, 2007 $3.2467% (87%/86%)500,000 .. 1,000,0000.51%07:02 (07:00)
104 Shadow Blade: Reload Aug 10, 2015 $4.4967% (87%/70%)20,000 .. 50,0000.99%04:08 (01:22)
105 Civilization IV: Warlords Apr 6, 2007 $4.9967% (87%/84%)1,000,000 .. 2,000,0000%00:00 (00:00)
106 Syrian Warfare Feb 21, 2017 $4.9467% (87%)50,000 .. 100,0006.67%05:19 (03:32)
107 Spooky Cats Jun 4, 2015 $0.7467% (87%)20,000 .. 50,0000%00:00 (00:00)
108 Mr. Shifty Apr 13, 2017 $4.9467% (87%)50,000 .. 100,0001.4%02:00 (01:30)
109 Meltdown Jun 5, 2014 $2.4465% (86%)50,000 .. 100,0000%00:00 (00:00)
110 Age of Wonders Shadow Magic Oct 2010 $2.4965% (86%/82%)100,000 .. 200,0000.97%01:22 (00:27)
111 Executive Assault Jul 17, 2015 $9.7465% (86%)20,000 .. 50,0000%00:00 (00:00)
112 Time Rifters Oct 21, 2014 $3.9965% (86%)0 .. 20,0000%00:00 (00:00)
113 The Haunted: Hells Reach Oct 24, 2011 $1.7965% (86%/51%)50,000 .. 100,0000%00:00 (00:00)
114 N2O: Nitrous Oxide Jun 29, 2015 $4.99N/A (N/A)0 .. 20,0000%00:00 (00:00)
115 VelocityUltra Dec 12, 2013 $4.9965% (86%)50,000 .. 100,0000.65%02:21 (00:47)
116 Concealed Intent Aug 2, 2016 $2.99N/A (N/A)0 .. 20,0000%00:00 (00:00)
117 Magnifico Dec 2, 2014 $1.2465% (86%)50,000 .. 100,0001.45%01:27 (00:29)
118 Interloper May 21, 2015 Free65% (86%/77%)50,000 .. 100,0000.31%05:32 (01:50)
119 Ghost Master Aug 23, 2003 $0.7465% (86%/81%)100,000 .. 200,0000%00:00 (00:00)
120 Arcane Sorcery Sep 15, 2015 $4.99N/A (N/A)0 .. 20,0000%00:00 (00:00)
121 Rush for Berlin Gold Oct 29, 2009 $2.4965% (86%/76%)20,000 .. 50,0000%00:00 (00:00)
122 Star Ruler Sep 20, 2010 $2.4965% (86%)100,000 .. 200,0000%00:00 (00:00)
123 Super Chibi Knight Jun 24, 2015 $2.4965% (86%)20,000 .. 50,0000%00:00 (00:00)
124 Slash or Die Jun 3, 2016 $1.1962% (85%)50,000 .. 100,0000%00:00 (00:00)
125 ENSLAVED: Odyssey to the West Premium Edition Oct 24, 2013 $4.9962% (85%/70%)200,000 .. 500,0000.21%00:13 (00:04)
126 CRYPTARK Jun 20, 2017 $3.7462% (85%/80%)50,000 .. 100,0001.67%00:41 (00:13)
127 Steel Rain Dec 3, 2015 $2.7962% (85%)0 .. 20,0000%00:00 (00:00)
128 Ballistic Tanks Sep 20, 2016 $0.9962% (85%)0 .. 20,0000%00:00 (00:00)
129 NOBUNAGA'S AMBITION: Souzou (Traditional Chinese version) Aug 2014 $17.1962% (85%)20,000 .. 50,00014.29%08:18 (05:32)
130 Romance of the Three Kingdoms Ⅴ with Power Up Kit / 三國志Ⅴ with パワーアップキット Apr 18, 2017 $19.99N/A (N/A)0 .. 20,0000%00:00 (00:00)
131 ShootMania Storm Apr 10, 2013 $6.7962% (85%/76%)50,000 .. 100,0000%00:00 (00:00)
132 Foresight Nov 28, 2014 $2.99N/A (N/A)0 .. 20,0001.04%03:37 (01:12)
133 Battle Group 2 Jun 13, 2014 $0.7959% (84%)50,000 .. 100,0000.96%01:26 (00:28)
134 Act of War: Direct Action Mar 14, 2005 $1.1959% (84%/82%)20,000 .. 50,0000%00:00 (00:00)
135 Eador: Genesis Aug 7, 2009 $1.1959% (84%)50,000 .. 100,0000%00:00 (00:00)
136 Child Of Ault Jan 24, 2017 $9.99N/A (N/A)0 .. 20,0000%00:00 (00:00)
137 Gurgamoth Feb 16, 2016 $4.99N/A (N/A)50,000 .. 100,0000.82%00:01 (00:00)
138 Last Knight: Rogue Rider Edition Oct 3, 2014 $1.5959% (84%)20,000 .. 50,0001.3%02:01 (00:40)
139 Dustoff Heli Rescue Mar 6, 2015 $0.5159% (84%)20,000 .. 50,0001.25%04:01 (01:20)
140 Legend (1994) Nov 10, 2015 $2.49N/A (N/A)0 .. 20,0000%00:00 (00:00)
141 Fat Chicken Dec 4, 2014 $9.99N/A (N/A)0 .. 20,0000%00:00 (00:00)
142 Conflict Desert Storm Sep 13, 2002 $0.9759% (84%/56%)20,000 .. 50,0000%00:00 (00:00)
143 Western 1849 Reloaded Feb 10, 2017 $0.99N/A (N/A)0 .. 20,0000%00:00 (00:00)
144 Rooks Keep Dec 5, 2014 $2.7159% (84%)20,000 .. 50,0000%00:00 (00:00)
145 GIBZ Apr 7, 2017 $2.7957% (83%)0 .. 20,0000%00:00 (00:00)
146 Ace of Protectors Jun 27, 2016 $1.19N/A (N/A)0 .. 20,0002.44%06:45 (02:15)
147 Galaxy Admirals Jan 17, 2017 $0.9957% (83%)50,000 .. 100,0000.4%01:05 (00:21)
148 Crush Your Enemies Jul 13, 2016 $0.9957% (83%/63%)20,000 .. 50,0000%00:00 (00:00)
149 Bulletstorm: Full Clip Edition Apr 7, 2017 $9.9957% (83%/76%)20,000 .. 50,0007.14%02:14 (01:24)
150 Advanced Tactics Gold Aug 15, 2014 $9.8957% (83%)0 .. 20,0000%00:00 (00:00)
151 Disciples Sacred Lands Gold Oct 7, 2014 $0.7957% (83%)50,000 .. 100,0000%00:00 (00:00)
152 Delta Force 2 Oct 31, 1999 $1.2457% (83%)50,000 .. 100,0003.7%01:58 (00:39)
153 NOBUNAGA'S AMBITION: Sphere of Influence Sep 1, 2015 $23.9957% (83%/70%)20,000 .. 50,0000%00:00 (00:00)
154 Rack N Ruin Sep 1, 2015 $9.9957% (83%)0 .. 20,0001.75%00:36 (00:12)
155 Orbital Gear Aug 7, 2014 $0.9957% (83%/59%)200,000 .. 500,0000.26%02:01 (00:40)
156 Sudden Strike 2 Gold May 22, 2017 $2.9957% (83%)0 .. 20,0000%00:00 (00:00)
157 TY the Tasmanian Tiger 4 Sep 17, 2015 $1.4957% (83%)0 .. 20,0000%00:00 (00:00)
158 Square Brawl Oct 22, 2015 $4.9954% (82%)0 .. 20,0000%00:00 (00:00)
159 Fleet Command May 15, 1999 $1.9954% (82%)20,000 .. 50,0000%00:00 (00:00)
160 htoL#NiQ: The Firefly Diary / htoL#NiQ-ホタルノニッキ- May 18, 2016 $4.9954% (82%)20,000 .. 50,0000%00:00 (00:00)
161 She Wants Me Dead May 13, 2016 $7.9954% (82%)0 .. 20,0000%00:00 (00:00)
162 Shadow Ops: Red Mercury Jul 2, 2014 $1.7454% (82%/61%)20,000 .. 50,0000%00:00 (00:00)
163 Defense Zone Jul 14, 2014 $2.39N/A (N/A)0 .. 20,00025%00:49 (00:16)
164 After The End: The Harvest Jun 2, 2017 $1.99N/A (N/A)20,000 .. 50,0000%00:00 (00:00)
165 Weapon of Choice Sep 23, 2015 $4.99N/A (N/A)0 .. 20,0000%00:00 (00:00)
166 Enemy Mind Jun 6, 2014 $1.9952% (81%)200,000 .. 500,0000%00:00 (00:00)
167 PixelJunk Shooter Ultimate Oct 21, 2015 $1.4952% (81%)20,000 .. 50,0000%00:00 (00:00)
168 Jim Power -The Lost Dimension Sep 30, 2015 $2.49N/A (N/A)0 .. 20,0001.89%04:48 (01:36)
169 rymdkapsel Jan 30, 2014 $7.9952% (81%/77%)0 .. 20,0000%00:00 (00:00)
170 Anomaly 2 May 15, 2013 $2.9952% (81%/77%)200,000 .. 500,0000.78%00:20 (00:20)
171 Fate of the World Feb 28, 2011 $4.9952% (81%/70%)50,000 .. 100,0000%00:00 (00:00)
172 Toadled Sep 22, 2016 $0.4952% (81%)50,000 .. 100,0000%00:00 (00:00)
173 Graviteam Tactics: Operation Star Feb 11, 2014 $22.4952% (81%)20,000 .. 50,0000%00:00 (00:00)
174 Blade Arcus from Shining: Battle Arena Jul 28, 2016 $11.9952% (81%)0 .. 20,0000%00:00 (00:00)
175 Junk Jack Nov 30, 2016 $11.2452% (81%)0 .. 20,0000%00:00 (00:00)
176 In Verbis Virtus Apr 3, 2015 $4.9952% (81%)50,000 .. 100,0000%00:00 (00:00)
177 Age of Wonders Oct 2010 $1.4952% (81%)100,000 .. 200,0000%00:00 (00:00)
178 Trigger Runners Mar 3, 2016 $1.9950% (80%)0 .. 20,0000%00:00 (00:00)
179 Supreme Ruler 2020 Gold Jun 17, 2008 $1.9950% (80%/65%)50,000 .. 100,0000%00:00 (00:00)
180 Cultures - 8th Wonder of the World Mar 26, 2015 $0.9950% (80%)50,000 .. 100,0000%00:00 (00:00)
181 Gatling Gears Aug 30, 2011 $9.9950% (80%)20,000 .. 50,0001.69%04:17 (01:25)
182 7,62 High Calibre Apr 30, 2014 $1.2450% (80%)50,000 .. 100,0000%00:00 (00:00)
183 Age of Gladiators Feb 25, 2016 $2.9950% (80%)20,000 .. 50,0000%00:00 (00:00)
184 Monday Night Combat Jan 24, 2011 $0.7450% (80%/82%)200,000 .. 500,0000%00:00 (00:00)
185 Tiki Man Jun 5, 2015 $0.550% (80%)20,000 .. 50,0000%00:00 (00:00)
186 Zeno Clash 2 Apr 30, 2013 $2.9950% (80%)200,000 .. 500,0000.24%01:36 (00:32)
187 Ninjahtic Jul 6, 2015 $0.7950% (80%)0 .. 20,0000%00:00 (00:00)
188 Bloodsports.TV Mar 30, 2015 $2.4950% (80%/69%)50,000 .. 100,0000.8%00:01 (00:00)
189 Fantasy Wars Aug 6, 2010 $1.2450% (80%/67%)50,000 .. 100,0000%00:00 (00:00)
190 Legends of Callasia Jun 10, 2016 Free50% (80%)50,000 .. 100,0000%00:00 (00:00)
191 Interplanetary May 12, 2015 N/A50% (80%)100,000 .. 200,0000%00:00 (00:00)
192 Perimeter Apr 3, 2014 $0.9950% (80%/77%)20,000 .. 50,0001.56%01:27 (00:57)
193 Gun Metal Sep 23, 2003 $1.0150% (80%)200,000 .. 500,0000.16%02:08 (00:42)
194 Conquest of Elysium 3 Oct 24, 2012 $2.4950% (80%)20,000 .. 50,0000%00:00 (00:00)
195 ROD: Revolt Of Defense Aug 12, 2016 $0.5950% (80%)20,000 .. 50,0000%00:00 (00:00)
196 Dominions 3: The Awakening Sep 10, 2013 $4.9950% (80%/82%)0 .. 20,0000%00:00 (00:00)
197 Making History: The Calm & the Storm Mar 13, 2007 $0.7450% (80%/70%)50,000 .. 100,0002.38%01:09 (00:45)
198 Run Rabbit Run Mar 31, 2016 $2.67N/A (N/A)0 .. 20,0000%00:00 (00:00)
199 Demolition Inc. Sep 19, 2011 $5.9950% (80%)50,000 .. 100,0000%00:00 (00:00)
200 Nuclear Dawn Sep 26, 2011 $1.7948% (79%/71%)200,000 .. 500,0001.23%03:03 (03:51)
201 Envoy Mar 17, 2016 $0.4948% (79%)50,000 .. 100,0000%00:00 (00:00)
202 Afghanistan '11 Mar 23, 2017 $19.7948% (79%)0 .. 20,0000%00:00 (00:00)
203 Protoshift Jan 15, 2016 $0.9948% (79%)0 .. 20,0000%00:00 (00:00)
204 Blue Effect VR Feb 8, 2017 $7.4948% (79%)0 .. 20,0000%00:00 (00:00)
205 Ironcast Mar 26, 2015 $7.4948% (79%/75%)20,000 .. 50,0000%00:00 (00:00)
206 Defense Zone 3 Ultra HD Dec 14, 2016 $2.3948% (79%)0 .. 20,0000%00:00 (00:00)
207 Vietnam ‘65 Mar 5, 2015 $4.8948% (79%/81%)0 .. 20,0000%00:00 (00:00)
208 Caster Mar 19, 2009 $1.9948% (79%)200,000 .. 500,0000.42%01:44 (01:09)
209 Battlezone Gold Edition May 11, 2017 $17.4948% (79%)0 .. 20,0000%00:00 (00:00)
210 Advent Rising Aug 9, 2005 $3.9948% (79%/70%)20,000 .. 50,0001%00:05 (00:01)
211 Locoland May 28, 2015 $0.4948% (79%)0 .. 20,0000%00:00 (00:00)
212 Star Wolves 3: Civil War Mar 2, 2010 $1.2448% (79%)100,000 .. 200,0000%00:00 (00:00)
213 TRON RUN/r Feb 16, 2016 $5.9948% (79%)0 .. 20,0000%00:00 (00:00)
214 TASTEE: Lethal Tactics May 10, 2016 $3.7448% (79%)20,000 .. 50,0002.04%01:27 (00:29)
215 David. Feb 16, 2015 $0.5948% (79%)50,000 .. 100,0000%00:00 (00:00)
216 Fortified Feb 3, 2016 $2.9948% (79%)500,000 .. 1,000,00018.36%03:39 (04:01)
217 Anomaly Warzone Earth Mobile Campaign Nov 6, 2013 $0.9948% (79%)100,000 .. 200,0000%00:00 (00:00)
218 Battle Mages: Sign of Darkness Jul 24, 2014 $0.4948% (79%)20,000 .. 50,0000%00:00 (00:00)
219 Zombie Party Jun 10, 2016 $1.9948% (79%)100,000 .. 200,0000%00:00 (00:00)
220 Mysterium: A Psychic Clue Game Jan 12, 2017 $9.9946% (78%)50,000 .. 100,0000.53%00:01 (00:00)
221 Umihara Kawase Shun: Steam Edition Nov 24, 2015 $5.99N/A (N/A)0 .. 20,0000%00:00 (00:00)
222 Zombie Killtime Aug 4, 2015 $1.99N/A (N/A)0 .. 20,0000%00:00 (00:00)
223 Starscape Mar 27, 2003 $1.9946% (78%)20,000 .. 50,0000%00:00 (00:00)
224 PAC-MAN and the Ghostly Adventures Oct 29, 2013 $4.9946% (78%)0 .. 20,0000%00:00 (00:00)
225 Strike Suit Zero: Director's Cut Apr 8, 2014 $3.9946% (78%)20,000 .. 50,0000%00:00 (00:00)
226 Dead Rising 2: Off the Record Oct 11, 2011 $5.9946% (78%/66%)200,000 .. 500,0000.65%01:29 (01:28)
227 Deadly 30 Jan 8, 2014 $1.2446% (78%)100,000 .. 200,0000%00:00 (00:00)
228 Star Realms Mar 8, 2016 Free46% (78%)100,000 .. 200,0001.32%00:01 (00:00)
229 Vector Strain Dec 9, 2015 $1.49N/A (N/A)20,000 .. 50,0000%00:00 (00:00)
230 Warhammer 40,000: Armageddon Nov 26, 2014 $9.5946% (78%/68%)20,000 .. 50,0005.88%05:02 (01:40)
231 King of Dragon Pass Jul 28, 2015 $3.5946% (78%)20,000 .. 50,0000.92%00:01 (00:00)
232 Pharaonic Apr 28, 2016 $3.7446% (78%)20,000 .. 50,0000%00:00 (00:00)
233 Tank Destroyer Mar 9, 2017 $0.546% (78%)20,000 .. 50,0000%00:00 (00:00)
234 Mold on Pizza Sep 25, 2015 $5.9946% (78%)0 .. 20,0000%00:00 (00:00)
235 Aeon Command Jul 3, 2014 $0.7446% (78%)20,000 .. 50,0000%00:00 (00:00)
236 Making History II: The War of the World Jun 22, 2010 $7.4946% (78%/38%)20,000 .. 50,0002.17%05:04 (01:41)
237 The Legend of Dark Witch Dec 1, 2015 $2.4946% (78%)20,000 .. 50,0000%00:00 (00:00)
238 Dangerous Waters Feb 7, 2006 $2.9944% (77%/82%)50,000 .. 100,0000%00:00 (00:00)
239 A.R.E.S. Extinction Agenda EX Oct 3, 2014 $1.9944% (77%)0 .. 20,0000%00:00 (00:00)
240 Bet On Soldier Dec 5, 2014 $1.9944% (77%)100,000 .. 200,0000%00:00 (00:00)
241 McDROID Sep 5, 2014 $9.9944% (77%)0 .. 20,0000%00:00 (00:00)
242 The Political Machine 2016 Feb 4, 2016 $4.9944% (77%)50,000 .. 100,0000.94%00:15 (00:05)
243 A Blind Legend Apr 7, 2016 $3.4944% (77%)0 .. 20,0000%00:00 (00:00)
244 Olympia Rising Jul 23, 2015 $4.9944% (77%)0 .. 20,0000%00:00 (00:00)
245 Curse of the Crescent Isle DX Aug 21, 2015 $1.5444% (77%)0 .. 20,0000%00:00 (00:00)
246 Starchaser: Priestess of the Night Sky Jul 24, 2015 $3.29N/A (N/A)0 .. 20,0000%00:00 (00:00)
247 Chaser Aug 22, 2003 $1.2444% (77%/66%)100,000 .. 200,0000%00:00 (00:00)
248 Heroes of Might & Magic V: Hammers of Fate Nov 14, 2006 $2.4944% (77%/66%)200,000 .. 500,0000%00:00 (00:00)
249 Sky Gamblers: Storm Raiders Jan 7, 2015 $3.3944% (77%)0 .. 20,0000%00:00 (00:00)
250 Star Hammer: The Vanguard Prophecy Jun 4, 2015 $4.9942% (76%/69%)0 .. 20,0000%00:00 (00:00)
251 Rocket Knight May 11, 2010 $14.9942% (76%/63%)0 .. 20,0000%00:00 (00:00)
252 Riddled Corpses Jun 2, 2015 $1.9942% (76%)20,000 .. 50,0002.35%74:34 (49:10)
253 Livelock Aug 30, 2016 $2.4942% (76%/73%)20,000 .. 50,0005.88%00:45 (00:59)
254 Warlords Battlecry III Jan 22, 2016 $5.9942% (76%/73%)0 .. 20,0000%00:00 (00:00)
255 Painkiller Hell & Damnation Oct 31, 2012 $4.9942% (76%/64%)500,000 .. 1,000,0000.71%02:14 (01:58)
256 Spirits of Xanadu Mar 26, 2015 $0.9942% (76%)20,000 .. 50,0001.59%02:22 (00:47)
257 Cashtronauts Aug 31, 2016 $0.5N/A (N/A)0 .. 20,0000%00:00 (00:00)
258 Extravaganza Rising Jul 21, 2016 N/AN/A (N/A)20,000 .. 50,0000%00:00 (00:00)
259 Deadlings: Rotten Edition Nov 11, 2014 $3.9942% (76%)50,000 .. 100,0000%00:00 (00:00)
260 BloodRayne Sep 9, 2003 $2.9942% (76%/65%)50,000 .. 100,0000%00:00 (00:00)
261 Civil War II Jul 3, 2014 $14.7942% (76%)0 .. 20,0000%00:00 (00:00)
262 Heroes of Arca Feb 16, 2017 Free42% (76%)0 .. 20,0000%00:00 (00:00)
263 Rocketbirds 2 Evolution Jan 26, 2017 $9.9942% (76%)0 .. 20,0000%00:00 (00:00)
264 Victory At Sea Aug 8, 2014 $4.9942% (76%)20,000 .. 50,0000%00:00 (00:00)
265 Velocity 2X Aug 19, 2015 $4.9942% (76%)50,000 .. 100,0000%00:00 (00:00)
266 Fist Puncher Jun 21, 2013 $0.9942% (76%/73%)20,000 .. 50,0000%00:00 (00:00)
267 Corgi Warlock Dec 3, 2015 $0.4942% (76%)20,000 .. 50,0000%00:00 (00:00)
268 Z Jul 4, 2014 $0.6942% (76%)100,000 .. 200,0002.88%04:45 (05:58)
269 AirMech Command Mar 8, 2017 $6.5940% (75%)0 .. 20,0000%00:00 (00:00)
270 Monster Monpiece Mar 14, 2017 $3.9940% (75%)20,000 .. 50,0002.38%00:10 (00:03)
271 Battle Time Sep 29, 2016 $0.4940% (75%)50,000 .. 100,0000%00:00 (00:00)
272 Albino Lullaby: Episode 1 Sep 14, 2015 $9.9940% (75%)20,000 .. 50,0000%00:00 (00:00)
273 Platformines Mar 28, 2014 $2.9940% (75%/67%)100,000 .. 200,0000%00:00 (00:00)
274 Commander: The Great War Jul 25, 2014 $9.8940% (75%)0 .. 20,0000%00:00 (00:00)
275 GEARGUNS Tank offensive Sep 20, 2016 $7.9940% (75%)20,000 .. 50,0000%00:00 (00:00)
276 Perimeter: Emperor's Testament May 22, 2014 $0.99N/A (N/A/72%)20,000 .. 50,0000%00:00 (00:00)
277 Zoo Empire Sep 3, 2015 $1.74N/A (N/A/59%)0 .. 20,0000%00:00 (00:00)
278 FIVE: Champions of Canaan Sep 27, 2016 $0.99N/A (N/A)0 .. 20,0000%00:00 (00:00)
279 CivCity: Rome Jul 24, 2006 $2.4940% (75%/67%)50,000 .. 100,0000%00:00 (00:00)
280 Master Reboot Oct 29, 2013 $4.4940% (75%/59%)50,000 .. 100,0000%00:00 (00:00)
281 Pick a Hero Jun 9, 2016 $0.79N/A (N/A)0 .. 20,0008.33%00:01 (00:00)
282 Smell Of Death Jul 4, 2016 $9.99N/A (N/A)0 .. 20,0000%00:00 (00:00)
283 The Superfluous May 19, 2017 $1.24N/A (N/A)0 .. 20,0000%00:00 (00:00)
284 BossConstructor Oct 24, 2016 $7.4940% (75%)0 .. 20,0000%00:00 (00:00)
285 Hunting Unlimited 2008 Sep 1, 2007 $3.49N/A (N/A)20,000 .. 50,0000%00:00 (00:00)
286 Onechanbara Z2: Chaos Jun 2, 2016 $19.9940% (75%)0 .. 20,0000%00:00 (00:00)
287 WARSHIFT Oct 12, 2016 $6.4940% (75%)20,000 .. 50,0000%00:00 (00:00)
288 Othello Mar 19, 2015 $2.4940% (75%)0 .. 20,0000%00:00 (00:00)
289 Phoning Home Feb 7, 2017 $4.5938% (74%/61%)20,000 .. 50,0001.82%00:41 (00:13)
290 Divinity: Dragon Commander Aug 6, 2013 $3.9938% (74%)200,000 .. 500,0000.86%04:30 (03:00)
291 TableTop Soccer Apr 22, 2016 $0.9938% (74%)0 .. 20,0000%00:00 (00:00)
292 Sid Meier’s Ace Patrol Aug 27, 2013 $1.2438% (74%)500,000 .. 1,000,0000.69%02:47 (02:14)
293 Distant Worlds: Universe May 23, 2014 $19.7938% (74%/81%)50,000 .. 100,0004.76%137:21 (45:47)
294 Ubersoldier II Mar 25, 2014 $1.4938% (74%/62%)100,000 .. 200,0000%00:00 (00:00)
295 LEGO Indiana Jones 2: The Adventure Continues Feb 18, 2010 $6.7938% (74%/66%)50,000 .. 100,0000%00:00 (00:00)
296 Bubsy Two-Fur Dec 17, 2015 $1.9938% (74%)0 .. 20,0000%00:00 (00:00)
297 Making History: The Great War Jan 29, 2015 $14.9938% (74%)20,000 .. 50,0003.23%04:45 (01:35)
298 Banzai Escape Feb 29, 2016 $5.9938% (74%)0 .. 20,0000%00:00 (00:00)
299 Viktor Jun 13, 2014 $1.1938% (74%)20,000 .. 50,0000%00:00 (00:00)
300 Vampire of the Sands Jul 17, 2015 $0.4938% (74%)20,000 .. 50,0000%00:00 (00:00)
301 FEIST Jul 23, 2015 $3.9938% (74%)20,000 .. 50,0000%00:00 (00:00)
302 Death by Game Show Jan 22, 2016 $4.9936% (73%)20,000 .. 50,0001.37%00:54 (00:18)
303 Rex Rocket Aug 5, 2014 $4.9936% (73%)20,000 .. 50,0000%00:00 (00:00)
304 VRZ: Torment May 18, 2017 $4.9936% (73%)0 .. 20,0000%00:00 (00:00)
305 Alarameth TD Jun 23, 2015 $1.24N/A (N/A)0 .. 20,0000%00:00 (00:00)
306 Codex of Victory Mar 16, 2017 $3.7436% (73%)0 .. 20,0000%00:00 (00:00)
307 Retrovirus Jan 31, 2013 $2.4936% (73%/70%)20,000 .. 50,0000%00:00 (00:00)
308 Cross of the Dutchman Sep 10, 2015 $3.1436% (73%/59%)20,000 .. 50,0001.79%00:40 (00:13)
309 Supreme Ruler Ultimate Oct 17, 2014 $7.9936% (73%)20,000 .. 50,0000%00:00 (00:00)
310 The Aquatic Adventure of the Last Human Jan 19, 2016 $1.9936% (73%/76%)0 .. 20,0000%00:00 (00:00)
311 Cast of the Seven Godsends - Redux Jul 20, 2015 $1.9934% (72%)20,000 .. 50,0000%00:00 (00:00)
312 Lost Planet: Extreme Condition Jun 26, 2007 $2.9934% (72%/66%)200,000 .. 500,0000%00:00 (00:00)
313 Civil War: Battle of Petersburg Feb 8, 2017 $0.49N/A (N/A)0 .. 20,0000%00:00 (00:00)
314 Gold Rush! Anniversary Nov 7, 2014 $2.9934% (72%)100,000 .. 200,0000%00:00 (00:00)
315 Airship Dragoon Aug 26, 2014 $9.99N/A (N/A)0 .. 20,0000%00:00 (00:00)
316 Heaven Forest NIGHTS Mar 14, 2017 $0.99N/A (N/A)100,000 .. 200,0001.93%03:41 (01:15)
317 Warp Mar 21, 2012 $2.4934% (72%)20,000 .. 50,0000%00:00 (00:00)
318 Auro: A Monster-Bumping Adventure Apr 13, 2016 $4.8934% (72%)0 .. 20,0000%00:00 (00:00)
319 Panzer Tactics HD May 22, 2014 $2.4934% (72%/69%)20,000 .. 50,0000%00:00 (00:00)
320 There Came an Echo Feb 24, 2015 $5.9934% (72%/58%)20,000 .. 50,0000%00:00 (00:00)
321 Hot Tin Roof: The Cat That Wore A Fedora Feb 20, 2015 $7.4934% (72%/66%)100,000 .. 200,0000%00:00 (00:00)
322 Tom Clancy's EndWar Feb 25, 2009 $3.3934% (72%/68%)50,000 .. 100,0000%00:00 (00:00)
323 Fatal Fight Jun 10, 2016 $2.99N/A (N/A)0 .. 20,0000%00:00 (00:00)
324 Battle Fleet 2 Nov 20, 2014 $5.2434% (72%)20,000 .. 50,0000%00:00 (00:00)
325 Cuban Missile Crisis Mar 25, 2015 $1.2434% (72%)20,000 .. 50,0000%00:00 (00:00)
326 Sengoku Jidai: Shadow of the Shogun May 19, 2016 $14.6934% (72%/80%)0 .. 20,0000%00:00 (00:00)
327 Smithy Jun 3, 2016 $0.51N/A (N/A)50,000 .. 100,0000.4%04:03 (01:21)
328 Pike and Shot : Campaigns Aug 13, 2015 $9.9934% (72%)0 .. 20,0000%00:00 (00:00)
329 Deadnaut Dec 8, 2014 $4.9934% (72%)0 .. 20,0000%00:00 (00:00)
330 rooMaze Mar 3, 2017 $0.7934% (72%)100,000 .. 200,0000%00:00 (00:00)
331 King Arthur - The Role-playing Wargame Nov 24, 2009 $2.4934% (72%)200,000 .. 500,0000%00:00 (00:00)
332 Pongo May 11, 2015 $0.4934% (72%)50,000 .. 100,0000%00:00 (00:00)
333 Lux Delux May 1, 2015 $3.0934% (72%)20,000 .. 50,0001.61%01:30 (00:30)
334 Rise & Shine Jan 13, 2017 $7.4934% (72%)20,000 .. 50,0000%00:00 (00:00)
335 Wyv and Keep: The Temple of the Lost Idol Aug 8, 2014 $1.4934% (72%)20,000 .. 50,0000%00:00 (00:00)
336 BitMaster Oct 12, 2016 $0.8933% (71%)100,000 .. 200,0000.3%02:37 (01:32)
337 The Last Federation Apr 18, 2014 $4.9933% (71%/72%)50,000 .. 100,0001.18%00:02 (00:00)
338 REDCON Apr 22, 2016 $2.9933% (71%)0 .. 20,0000%00:00 (00:00)
339 Space Colony: Steam Edition Apr 30, 2015 $2.9933% (71%/74%)20,000 .. 50,0001.56%00:36 (00:12)
340 Revolution Under Siege Gold Jul 2, 2015 $6.2433% (71%)0 .. 20,0000%00:00 (00:00)
341 A.R.E.S.: Extinction Agenda Jan 20, 2011 $0.9933% (71%/68%)100,000 .. 200,0000%00:00 (00:00)
342 Zombie Camp Jul 31, 2016 $1.99N/A (N/A)0 .. 20,0000%00:00 (00:00)
343 Elliot Quest Nov 10, 2014 $9.9933% (71%)20,000 .. 50,0000%00:00 (00:00)
344 Disney Planes Oct 6, 2014 $5.99N/A (N/A)0 .. 20,0000%00:00 (00:00)
345 Elven Legacy Apr 7, 2009 $1.2433% (71%/71%)50,000 .. 100,0000%00:00 (00:00)
346 Pigmentone Jul 8, 2016 $0.49N/A (N/A)0 .. 20,0000%00:00 (00:00)
347 Little King's Story Aug 5, 2016 $4.9931% (70%/62%)0 .. 20,0000%00:00 (00:00)
348 Wildlife Park 2 - Crazy Zoo Jul 17, 2014 $2.79N/A (N/A)0 .. 20,0000%00:00 (00:00)
349 Jagged Alliance 2 - Wildfire Mar 8, 2004 $1.3931% (70%)1,000,000 .. 2,000,0001.7%05:45 (06:16)
350 Alea Jacta Est Nov 4, 2014 $9.7431% (70%)20,000 .. 50,0000%00:00 (00:00)
351 Collapse Apr 11, 2014 $1.9930% (69%)50,000 .. 100,0001.54%02:52 (00:57)
352 RISK: Factions Mar 8, 2011 $2.4930% (69%/77%)50,000 .. 100,0002.63%01:04 (00:21)
353 Incandescent Jun 30, 2015 $0.4930% (69%)20,000 .. 50,0000.6%01:19 (00:26)
354 Guns n Zombies Oct 30, 2014 $0.7930% (69%)100,000 .. 200,0000.55%02:00 (00:40)
355 1775: Rebellion Sep 29, 2016 $24.99N/A (N/A)0 .. 20,0000%00:00 (00:00)
356 Strategy & Tactics: Wargame Collection Apr 22, 2016 $2.4930% (69%)20,000 .. 50,0000%00:00 (00:00)
357 Spud's Quest Jul 31, 2014 $1.59N/A (N/A)0 .. 20,0000%00:00 (00:00)
358 UnSummoning: the Spectral Horde Dec 21, 2015 $3.99N/A (N/A)0 .. 20,0000%00:00 (00:00)
359 Warrior Kings Apr 24, 2014 $1.4930% (69%/73%)20,000 .. 50,0000%00:00 (00:00)
360 The Nightmare Cooperative Jul 16, 2014 $1.2430% (69%)50,000 .. 100,0000%00:00 (00:00)
361 FIVE: Guardians of David Nov 24, 2015 $2.4930% (69%/66%)20,000 .. 50,0000%00:00 (00:00)
362 Quick Slick Deadly Sep 21, 2015 $0.4930% (69%)20,000 .. 50,0000%00:00 (00:00)
363 Sol 0: Mars Colonization Jan 15, 2016 $3.9930% (69%)20,000 .. 50,0000%00:00 (00:00)
364 Brigade E5: New Jagged Union Apr 30, 2014 $0.9930% (69%/41%)0 .. 20,0000%00:00 (00:00)
365 YAIBA: NINJA GAIDEN Z Mar 21, 2014 $5.9930% (69%/49%)20,000 .. 50,0000%00:00 (00:00)
366 ManaCollect Apr 17, 2015 $1.7428% (68%)0 .. 20,0003.13%05:20 (01:46)
367 Zombie City Defense 2 Aug 19, 2016 $2.7928% (68%)0 .. 20,0000%00:00 (00:00)
368 Survivor Squad: Gauntlets Nov 16, 2015 $0.9928% (68%)20,000 .. 50,0000%00:00 (00:00)
369 Fair Strike Apr 23, 2015 $0.51N/A (N/A/56%)0 .. 20,0000%00:00 (00:00)
370 Stonerid Aug 15, 2014 $0.4928% (68%)20,000 .. 50,0000%00:00 (00:00)
371 The Hive Aug 25, 2016 $4.9928% (68%)20,000 .. 50,0000%00:00 (00:00)
372 Theatre of War 2: Africa 1943 Apr 24, 2009 $1.2428% (68%/63%)100,000 .. 200,0000%00:00 (00:00)
373 Toren May 11, 2015 $2.4928% (68%/57%)50,000 .. 100,0000%00:00 (00:00)
374 Toy Odyssey: The Lost and Found Sep 20, 2016 $7.4928% (68%/66%)50,000 .. 100,0002.34%03:19 (04:15)
375 Space Food Truck Mar 25, 2016 $2.4928% (68%)0 .. 20,0009.09%00:37 (00:12)
376 Warhammer 40,000: Armageddon - Da Orks Aug 18, 2016 $11.79N/A (N/A)0 .. 20,0000%00:00 (00:00)
377 Zafehouse: Diaries Sep 6, 2013 $0.9927% (67%)50,000 .. 100,0000%00:00 (00:00)
378 Bedlam Oct 13, 2015 $1.2927% (67%/54%)100,000 .. 200,0000.79%01:49 (01:12)
379 Chainsaw Warrior Oct 7, 2013 $1.2427% (67%)100,000 .. 200,0000%00:00 (00:00)
380 7th Legion Oct 23, 2014 $1.7427% (67%)20,000 .. 50,0000%00:00 (00:00)
381 Mad Combat Marines Jul 13, 2016 $0.4927% (67%)20,000 .. 50,0000%00:00 (00:00)
382 Nomad Fleet Apr 19, 2016 $0.9927% (67%)20,000 .. 50,0000%00:00 (00:00)
383 Kill The Plumber Dec 31, 2015 $4.9927% (67%)0 .. 20,0000%00:00 (00:00)
384 Men of War: Condemned Heroes Apr 12, 2012 $1.9925% (66%/57%)100,000 .. 200,0000%00:00 (00:00)
385 Platypus II Aug 15, 2014 $0.6925% (66%)200,000 .. 500,0000.98%01:58 (02:26)
386 Sengoku Sep 15, 2011 $2.4925% (66%/70%)100,000 .. 200,0000.85%16:28 (05:29)
387 Scourge: Outbreak Apr 2, 2014 $7.9925% (66%)100,000 .. 200,0001.09%03:20 (02:13)
388 Commander Cool 2 Dec 17, 2015 $0.8625% (66%)20,000 .. 50,0000%00:00 (00:00)
389 March of the Eagles Feb 18, 2013 $4.9925% (66%/71%)50,000 .. 100,0001.25%02:05 (00:41)
390 1849 May 8, 2014 $5.9925% (66%)20,000 .. 50,0000%00:00 (00:00)
391 Royal Defense Nov 10, 2014 $0.4925% (66%)50,000 .. 100,0000%00:00 (00:00)
392 The Living Dungeon Nov 2, 2015 $4.4125% (66%)0 .. 20,0000%00:00 (00:00)
393 8-Bit Commando Jun 2, 2014 $1.7924% (65%)50,000 .. 100,0000.72%00:11 (00:03)
394 Infinity Runner Jul 14, 2014 $2.7924% (65%/56%)0 .. 20,0004.76%00:03 (00:01)
395 Ground Breakers Jun 15, 2016 $2.49N/A (N/A)0 .. 20,0000%00:00 (00:00)
396 Frozen Synapse Prime Nov 14, 2014 $2.4924% (65%/83%)100,000 .. 200,0000.46%00:46 (00:15)
397 Spirit of War Mar 12, 2015 $9.9924% (65%)0 .. 20,0000%00:00 (00:00)
398 Theatre of War 2: Kursk 1943 Mar 9, 2010 $1.2424% (65%)50,000 .. 100,0000%00:00 (00:00)
399 Hunters Of The Dead Sep 4, 2014 $0.7424% (65%)20,000 .. 50,0000%00:00 (00:00)
400 Assassin’s Creed Chronicles: India Jan 12, 2016 $3.3924% (65%)20,000 .. 50,0000%00:00 (00:00)
401 Marauder Apr 4, 2014 $0.9924% (65%)50,000 .. 100,0000%00:00 (00:00)
402 Malebolgia May 6, 2015 $2.5924% (65%)0 .. 20,0000%00:00 (00:00)
403 Zombie Tycoon 2: Brainhov's Revenge Dec 9, 2013 $1.2424% (65%)50,000 .. 100,0000%00:00 (00:00)
404 Devil's Dare 悪魔の挑戦 Oct 21, 2014 $12.9924% (65%)20,000 .. 50,0000%00:00 (00:00)
405 Desert Ashes Nov 10, 2014 $4.9923% (64%)20,000 .. 50,0000%00:00 (00:00)
406 Jagged Alliance: Crossfire Aug 24, 2012 $2.9923% (64%/63%)100,000 .. 200,0000%00:00 (00:00)
407 Rise: Battle Lines Nov 17, 2015 $0.4923% (64%)0 .. 20,0000%00:00 (00:00)
408 Warlock 2: The Exiled Apr 10, 2014 $4.9923% (64%/73%)50,000 .. 100,0000%00:00 (00:00)
409 Disney Pirates of the Caribbean: At Worlds End Oct 6, 2014 $5.9923% (64%)0 .. 20,0000%00:00 (00:00)
410 Link Apr 22, 2016 $4.99N/A (N/A)0 .. 20,0000%00:00 (00:00)
411 Revenge of Roger Rouge Apr 22, 2016 $0.74N/A (N/A)20,000 .. 50,0001.72%03:09 (03:28)
412 A Game of Dwarves Oct 23, 2012 $2.4923% (64%/60%)50,000 .. 100,0000.93%00:01 (00:00)
413 Zoo Rampage Jul 9, 2014 $3.9923% (64%)0 .. 20,0000%00:00 (00:00)
414 Battle Worlds: Kronos Nov 4, 2013 $4.9923% (64%/71%)20,000 .. 50,0000%00:00 (00:00)
415 The Seven Years War (1756-1763) Oct 30, 2015 $6.9923% (64%)0 .. 20,0000%00:00 (00:00)
416 Kaiju-A-GoGo Apr 23, 2015 $2.4923% (64%)20,000 .. 50,0000%00:00 (00:00)
417 Double Dragon IV Jan 30, 2017 $3.4923% (64%/50%)0 .. 20,0000%00:00 (00:00)
418 NOBUNAGA'S AMBITION: Tendou with Power Up Kit / 信長の野望・天道 with パワーアップキット Jun 25, 2015 $27.49N/A (N/A)0 .. 20,000100%01:16 (01:16)
419 Urban Pirate Jun 17, 2016 $1.74N/A (N/A)0 .. 20,0000%00:00 (00:00)
420 SPACECOM Sep 17, 2014 $1.9923% (64%/68%)100,000 .. 200,0000.38%01:00 (00:20)
421 Beasts Battle Jun 15, 2016 $1.59N/A (N/A)0 .. 20,0000%00:00 (00:00)
422 Port Royale 2 Apr 30, 2004 $0.9922% (63%/75%)50,000 .. 100,0000%00:00 (00:00)
423 Pixel Boy and the Ever Expanding Dungeon May 30, 2014 $0.9922% (63%)20,000 .. 50,0000%00:00 (00:00)
424 Will Fight for Food: Super Actual Sellout: Game of the Hour Apr 22, 2015 $1.1922% (63%)0 .. 20,0000%00:00 (00:00)
425 War, the Game Jan 12, 2015 $6.9922% (63%/65%)20,000 .. 50,0000%00:00 (00:00)
426 BattleLore: Command Mar 31, 2015 $6.9921% (62%)0 .. 20,0000%00:00 (00:00)
427 Battleplan: American Civil War Jul 4, 2014 $1.4921% (62%/66%)100,000 .. 200,0000.44%01:05 (00:37)
428 The Few Jun 18, 2014 $7.9921% (62%)20,000 .. 50,0000%00:00 (00:00)
429 Goblin Defenders: Steel‘n’ Wood Nov 23, 2015 $1.0421% (62%)20,000 .. 50,0002.67%03:02 (01:27)
430 Sorcerer King: Rivals Sep 22, 2016 $6.7421% (62%)20,000 .. 50,0000%00:00 (00:00)
431 Hyperspace Pinball Sep 30, 2015 $2.99N/A (N/A)0 .. 20,0000%00:00 (00:00)
432 Supreme Ruler: Cold War Jul 29, 2011 $1.9921% (62%/63%)20,000 .. 50,0000%00:00 (00:00)
433 Disney Epic Mickey 2: The Power of Two Nov 18, 2012 $9.9921% (62%)20,000 .. 50,0000%00:00 (00:00)
434 My Super Tower 2 Jan 27, 2017 $0.49N/A (N/A)0 .. 20,0000%00:00 (00:00)
435 Freight Tycoon Inc. Apr 3, 2014 $1.2421% (62%)20,000 .. 50,0003.57%00:15 (00:05)
436 4089: Ghost Within Jan 9, 2015 $1.7921% (62%)0 .. 20,0000%00:00 (00:00)
437 Flashback Oct 1, 2013 $3.3921% (62%)20,000 .. 50,0000%00:00 (00:00)
438 Bombshell Jan 29, 2016 $34.9921% (62%)0 .. 20,0000%00:00 (00:00)
439 Legions of Steel Jul 16, 2015 $4.99N/A (N/A/64%)0 .. 20,0000%00:00 (00:00)
440 Call of Duty: Black Ops - Mac Edition Sep 27, 2012 $19.9919% (61%)50,000 .. 100,0000%00:00 (00:00)
441 Eclipse: New Dawn for the Galaxy Sep 16, 2016 N/A19% (61%)0 .. 20,0000%00:00 (00:00)
442 Crazy Forest Jul 6, 2016 $0.49N/A (N/A)100,000 .. 200,0000.4%00:01 (00:00)
443 To End All Wars Aug 29, 2014 $11.9919% (61%/71%)0 .. 20,0000%00:00 (00:00)
444 Men of War: Vietnam Sep 8, 2011 $1.9919% (61%/68%)100,000 .. 200,0000%00:00 (00:00)
445 E.T. Armies Mar 3, 2016 $2.2419% (61%/54%)0 .. 20,0000%00:00 (00:00)
446 Gnumz: Masters of Defense Dec 21, 2015 $0.4919% (61%)20,000 .. 50,0001.25%05:59 (03:48)
447 Purgatory Jun 22, 2016 $0.4919% (61%)200,000 .. 500,0000.14%02:22 (01:34)
448 Spice Road Apr 24, 2014 $3.9919% (61%)0 .. 20,0000%00:00 (00:00)
449 Merchants of Kaidan Nov 10, 2014 $1.4918% (60%)100,000 .. 200,0002.38%06:31 (09:04)
450 Skyshine's BEDLAM Sep 16, 2015 $4.9918% (60%/67%)20,000 .. 50,0002.17%08:33 (02:51)
451 Grim Seventh Jan 20, 2017 FreeN/A (N/A)0 .. 20,0005.56%04:39 (01:33)
452 Close Combat - Panthers in the Fog May 14, 2015 $9.9918% (60%)0 .. 20,0000%00:00 (00:00)
453 Overruled! Sep 15, 2015 $3.2418% (60%)20,000 .. 50,0000%00:00 (00:00)
454 Stay Dead Evolution Feb 4, 2015 $1.0118% (60%)20,000 .. 50,0001.18%00:01 (00:00)
455 Cemetery Warrior 3 Feb 3, 2017 $0.4918% (60%)50,000 .. 100,0000%00:00 (00:00)
456 Patrician IV - Steam Special Edition Sep 17, 2010 $3.7418% (60%/66%)100,000 .. 200,0000%00:00 (00:00)
457 Woolfe - The Red Hood Diaries Mar 17, 2015 $3.3918% (60%/55%)50,000 .. 100,0001.08%00:01 (00:00)
458 Disciples III - Renaissance Steam Special Edition Jul 16, 2010 $3.7418% (60%/56%)100,000 .. 200,0000%00:00 (00:00)
459 Life in Bunker Feb 25, 2016 $7.9917% (59%)0 .. 20,0000%00:00 (00:00)
460 Quarantine May 24, 2017 $2.9917% (59%)0 .. 20,0000%00:00 (00:00)
461 7 Grand Steps: What Ancients Begat Jun 7, 2013 $11.9917% (59%)100,000 .. 200,0000%00:00 (00:00)
462 Colonial Conquest Jul 28, 2015 $3.9917% (59%)0 .. 20,0000%00:00 (00:00)
463 Prospekt Feb 18, 2016 $2.4917% (59%)20,000 .. 50,0005.56%72:31 (24:10)
464 VR Journey Dec 15, 2016 $0.5N/A (N/A)20,000 .. 50,0000%00:00 (00:00)
465 Hybrid Wars Sep 29, 2016 $7.1917% (59%/54%)0 .. 20,0000%00:00 (00:00)
466 Code of Princess Apr 14, 2016 $5.9917% (59%/53%)0 .. 20,0000%00:00 (00:00)
467 Check vs Mate Aug 16, 2012 $2.9917% (59%/69%)0 .. 20,0000%00:00 (00:00)
468 Super Helmets on Fire DX Ultra Edition Plus Alpha Feb 15, 2016 $0.99N/A (N/A)0 .. 20,0002.63%00:30 (00:10)
469 Ninjahtic Mind Tricks Jul 16, 2015 $0.79N/A (N/A)0 .. 20,0000%00:00 (00:00)
470 Antisquad Oct 31, 2014 $5.9917% (59%)50,000 .. 100,0000%00:00 (00:00)
471 NOBUNAGA'S AMBITION: Sphere of Influence - Ascension / 信長の野望・創造 戦国立志伝 Mar 23, 2016 $23.9917% (59%)50,000 .. 100,0000%00:00 (00:00)
472 Woodle Tree 2: Worlds Sep 16, 2016 $1.5917% (59%)50,000 .. 100,0002.19%05:25 (03:44)
473 Armada 2526 Gold Edition Feb 28, 2013 $3.5917% (59%/66%)20,000 .. 50,0000%00:00 (00:00)
474 Sir! I'd Like To Report A Bug! Oct 19, 2015 $0.79N/A (N/A)0 .. 20,0000%00:00 (00:00)
475 DreamBreak Jul 21, 2016 $2.37N/A (N/A/46%)0 .. 20,0000%00:00 (00:00)
476 Adventure World Aug 2, 2016 $4.99N/A (N/A)0 .. 20,0000%00:00 (00:00)
477 Wanderlust Adventures Aug 10, 2015 $1.4916% (58%)20,000 .. 50,0000%00:00 (00:00)
478 Dawn of Andromeda May 4, 2017 $10.1916% (58%/70%)0 .. 20,0000%00:00 (00:00)
479 Prophour23 Oct 22, 2014 $2.4916% (58%)0 .. 20,0000%00:00 (00:00)
480 Ceres Oct 16, 2015 $3.9916% (58%/74%)0 .. 20,0000%00:00 (00:00)
481 Defend Your Crypt Jul 21, 2016 $1.49N/A (N/A)0 .. 20,0000%00:00 (00:00)
482 Rise of Venice Sep 27, 2013 $4.9915% (57%/66%)50,000 .. 100,0001.72%00:45 (00:15)
483 Heavy Fire: Afghanistan Aug 15, 2014 $0.9815% (57%)20,000 .. 50,0000%00:00 (00:00)
484 Unearthed: Trail of Ibn Battuta - Episode 1 - Gold Edition Jan 3, 2014 $1.2415% (57%)20,000 .. 50,0000%00:00 (00:00)
485 Assault on Arnhem Mar 11, 2016 $9.99N/A (N/A)0 .. 20,0000%00:00 (00:00)
486 Gates of Horizon Dec 18, 2014 $1.9915% (57%)0 .. 20,0000%00:00 (00:00)
487 Horizon Feb 6, 2014 $5.9914% (56%)50,000 .. 100,0000%00:00 (00:00)
488 Delve Deeper Sep 24, 2010 $4.9914% (56%)50,000 .. 100,0000%00:00 (00:00)
489 Abalone Apr 23, 2014 $4.9914% (56%)0 .. 20,0000%00:00 (00:00)
490 BC Kings Sep 15, 2008 $0.9914% (55%)20,000 .. 50,0000%00:00 (00:00)
491 Pain Train Jan 11, 2017 $0.4914% (55%)50,000 .. 100,0000.85%04:10 (01:23)
492 Sovereignty: Crown of Kings Feb 2, 2017 $6.2414% (55%)0 .. 20,0000%00:00 (00:00)
493 Urja Jan 9, 2015 $9.9913% (54%)20,000 .. 50,0000%00:00 (00:00)
494 Wickland Feb 6, 2015 $0.4913% (54%)50,000 .. 100,0000.95%00:06 (00:02)
495 Crusaders: Thy Kingdom Come Oct 8, 2009 $2.49N/A (N/A)20,000 .. 50,0000%00:00 (00:00)
496 Tic-Toc-Tower Sep 28, 2015 $0.513% (54%)0 .. 20,0000%00:00 (00:00)
497 RESCUE 2: Everyday Heroes Jun 3, 2015 $3.9912% (53%)20,000 .. 50,0000%00:00 (00:00)
498 Defence to death May 11, 2017 $0.57N/A (N/A)50,000 .. 100,0000%00:00 (00:00)
499 Smugglers 5 Apr 11, 2014 $3.9912% (53%)20,000 .. 50,0000%00:00 (00:00)
500 Armada 2526 Jun 10, 2010 $2.69N/A (N/A/66%)0 .. 20,0000%00:00 (00:00)
501 Story Of the Survivor Feb 16, 2016 $2.49N/A (N/A)50,000 .. 100,0000%00:00 (00:00)
502 Nightside Aug 6, 2015 $0.9912% (53%)20,000 .. 50,0000%00:00 (00:00)
503 The Stalin Subway Sep 19, 2014 $0.5112% (52%)20,000 .. 50,0000%00:00 (00:00)
504 Meridian: New World Apr 4, 2014 $1.3912% (52%/43%)50,000 .. 100,0000%00:00 (00:00)
505 Scapeland Mar 31, 2016 $0.51N/A (N/A)0 .. 20,0000%00:00 (00:00)
506 Royal Bounty HD Aug 10, 2015 $2.9912% (52%)0 .. 20,0000%00:00 (00:00)
507 Dusty Revenge:Co-Op Edition Feb 17, 2014 $4.9411% (51%)50,000 .. 100,0000%00:00 (00:00)
508 Castle Werewolf 3D Feb 7, 2017 $0.5N/A (N/A)50,000 .. 100,0000%00:00 (00:00)
509 Biodrone Battle Jul 16, 2015 $0.4911% (51%)100,000 .. 200,0000.49%00:01 (00:00)
510 MinosMaze - The Minotaur's Labyrinth May 1, 2017 $0.49N/A (N/A)0 .. 20,0000%00:00 (00:00)
511 Guncraft Aug 9, 2013 $2.2411% (51%/73%)100,000 .. 200,0000%00:00 (00:00)
512 MDK2 HD Jul 30, 2012 $7.4911% (51%/73%)0 .. 20,0000%00:00 (00:00)
513 Albedo: Eyes from Outer Space Apr 10, 2015 $1.4910% (50%/66%)50,000 .. 100,0000%00:00 (00:00)
514 PeriAreion Feb 19, 2015 $5.99N/A (N/A)0 .. 20,0000%00:00 (00:00)
515 Weather Lord: The Successor's Path May 7, 2015 $0.49N/A (N/A)0 .. 20,00014.29%01:31 (00:30)
516 No Pineapple Left Behind Feb 18, 2016 $1.74N/A (N/A/59%)0 .. 20,0000%00:00 (00:00)
517 Aegis Oct 6, 2016 $0.92N/A (N/A)0 .. 20,0000%00:00 (00:00)
518 The Campaign Series: Fall Weiss May 30, 2014 $2.2410% (50%)20,000 .. 50,0001.49%05:03 (01:41)
519 Odd||Even Apr 6, 2016 $0.49N/A (N/A)20,000 .. 50,0000%00:00 (00:00)
520 Marvel: Ultimate Alliance 2 Jul 26, 2016 $15.9910% (49%)0 .. 20,0008.33%06:24 (04:15)
521 Kidnapped Aug 4, 2015 $0.7710% (49%)100,000 .. 200,0000.28%00:01 (00:00)
522 Rubber and Lead Sep 4, 2015 $4.999% (48%)20,000 .. 50,0000.86%02:04 (00:41)
523 Synonymy Mar 5, 2015 $0.499% (48%)0 .. 20,0000%00:00 (00:00)
524 Aggression: Europe Under Fire Apr 9, 2014 $0.999% (48%)50,000 .. 100,0007.69%00:09 (00:03)
525 Z Steel Soldiers Aug 1, 2014 $1.299% (48%)50,000 .. 100,0000.94%04:44 (03:09)
526 Meridian: Squad 22 Aug 11, 2016 $2.99N/A (N/A)0 .. 20,0000%00:00 (00:00)
527 Island Defense Jul 23, 2015 $1.999% (47%)50,000 .. 100,0000.29%00:01 (00:00)
528 Blasting Agent: Ultimate Edition Aug 17, 2016 $2.99N/A (N/A)0 .. 20,0000%00:00 (00:00)
529 Hero Generations Apr 10, 2015 $0.899% (47%)0 .. 20,0000%00:00 (00:00)
530 Star Traders: 4X Empires Dec 16, 2014 $4.999% (47%)0 .. 20,0000%00:00 (00:00)
531 Crossfire: Dungeons May 21, 2015 $0.519% (47%)0 .. 20,0000%00:00 (00:00)
532 Disposable Heroes Mar 22, 2016 $0.499% (47%)0 .. 20,0002.56%01:30 (00:30)
533 Megamagic: Wizards of the Neon Age Apr 20, 2016 $2.99N/A (N/A/67%)20,000 .. 50,0001.43%00:01 (00:00)
534 Redemption: Saints And Sinners Nov 18, 2016 $0.498% (46%)50,000 .. 100,0000.91%00:18 (00:11)
535 Magic Quest May 6, 2016 $1.99N/A (N/A)50,000 .. 100,0000.29%05:58 (01:59)
536 HitBox Jan 30, 2017 Free8% (46%)0 .. 20,0003.57%00:02 (00:00)
537 The Stalin Subway: Red Veil Oct 24, 2014 $0.58% (46%)50,000 .. 100,0000%00:00 (00:00)
538 World War 2: Time of Wrath Jun 6, 2014 $0.998% (45%)20,000 .. 50,0000%00:00 (00:00)
539 Commander: Conquest of the Americas Jul 30, 2010 $9.998% (45%/68%)50,000 .. 100,0000%00:00 (00:00)
540 Chronostorm: Siberian Border Nov 20, 2015 $0.49N/A (N/A)0 .. 20,0000%00:00 (00:00)
541 Battle Chess: Game of Kings Dec 11, 2015 $14.998% (45%)0 .. 20,0000%00:00 (00:00)
542 The Bluecoats: North vs South Feb 2, 2015 $0.998% (45%)50,000 .. 100,0001.3%04:16 (01:25)
543 Impire Feb 14, 2013 $4.998% (45%/45%)100,000 .. 200,0000%00:00 (00:00)
544 Carrier Command: Gaea Mission Sep 28, 2012 $6.598% (45%/60%)200,000 .. 500,0000%00:00 (00:00)
545 Hell Nov 13, 2014 $4.79N/A (N/A)0 .. 20,0000%00:00 (00:00)
546 Skyward Collapse May 23, 2013 $1.247% (44%/64%)100,000 .. 200,0000%00:00 (00:00)
547 Pride of Nations Jun 8, 2011 $4.797% (44%/70%)20,000 .. 50,0000%00:00 (00:00)
548 Vendetta - Curse of Raven's Cry Nov 20, 2015 $9.897% (44%)0 .. 20,0000%00:00 (00:00)
549 DUNGEONS - Steam Special Edition Feb 10, 2011 $1.997% (44%/65%)200,000 .. 500,0000%00:00 (00:00)
550 Nux Aug 15, 2014 $0.697% (44%)100,000 .. 200,0000.67%02:21 (02:58)
551 Samudai Feb 9, 2015 $2.996% (42%)20,000 .. 50,0000%00:00 (00:00)
552 Sword of the Stars II: Enhanced Edition Nov 30, 2012 $4.996% (42%/65%)100,000 .. 200,0000%00:00 (00:00)
553 The Entente Gold Jun 16, 2014 $0.496% (42%)50,000 .. 100,0000%00:00 (00:00)
554 Burstfire Sep 24, 2015 N/A6% (42%)50,000 .. 100,0000%00:00 (00:00)
555 Lost in Paradise Aug 20, 2015 $0.986% (41%)20,000 .. 50,0000%00:00 (00:00)
556 Hydraulic Empire Jul 31, 2015 $1.996% (41%)0 .. 20,0000%00:00 (00:00)
557 Infection: Humanity's Last Gasp May 26, 2016 $9.99N/A (N/A)0 .. 20,0000%00:00 (00:00)
558 Rulers of Nations Jul 16, 2014 $9.996% (41%/63%)0 .. 20,0000%00:00 (00:00)
559 The Kings' Crusade Oct 8, 2010 $2.496% (40%/71%)50,000 .. 100,0000%00:00 (00:00)
560 Dead But Alive! Southern England Oct 2, 2015 $5.996% (40%)0 .. 20,0002.27%03:01 (01:00)
561 Heavy Fire: Shattered Spear Oct 23, 2015 $0.95N/A (N/A)0 .. 20,0000%00:00 (00:00)
562 R.I.P.D.: The Game Jul 16, 2013 $1.996% (40%)20,000 .. 50,0000%00:00 (00:00)
563 Strategic War in Europe Mar 21, 2014 $2.246% (40%)20,000 .. 50,0001.11%06:33 (02:11)
564 Pain Train 2 Mar 16, 2017 $0.696% (40%)0 .. 20,0005.26%02:52 (01:39)
565 Devils & Demons Oct 6, 2015 $2.496% (40%)20,000 .. 50,0000%00:00 (00:00)
566 Dark Matter Oct 17, 2013 $1.795% (39%)0 .. 20,0000%00:00 (00:00)
567 Zombie Apocalypse: Escape The Undead City Jun 17, 2016 $0.5N/A (N/A)0 .. 20,0000%00:00 (00:00)
568 Wave of Darkness Nov 5, 2015 $8.995% (39%)0 .. 20,0000%00:00 (00:00)
569 Dungeons - The Dark Lord Sep 27, 2011 $4.995% (39%/72%)100,000 .. 200,0000%00:00 (00:00)
570 Control Craft 2 Feb 15, 2016 $0.5N/A (N/A)0 .. 20,0000%00:00 (00:00)
571 Tiamat X May 29, 2015 $0.495% (38%)50,000 .. 100,0000%00:00 (00:00)
572 Gratuitous Space Battles 2 Apr 16, 2015 $2.495% (38%)20,000 .. 50,0000%00:00 (00:00)
573 Mechs & Mercs: Black Talons Jan 9, 2015 $1.995% (38%)0 .. 20,0000%00:00 (00:00)
574 Risk Jun 10, 2013 $2.495% (38%)20,000 .. 50,0000%00:00 (00:00)
575 Knight Adventure Oct 15, 2015 $0.99N/A (N/A)50,000 .. 100,0008.26%04:16 (04:32)
576 Stellar Impact Apr 12, 2012 $9.994% (37%/74%)50,000 .. 100,0002.88%04:19 (02:38)
577 Kick-Ass 2 Aug 15, 2014 $4.994% (36%)0 .. 20,0000%00:00 (00:00)
578 Blue Sheep Mar 31, 2016 $1.99N/A (N/A)0 .. 20,0000%00:00 (00:00)
579 Urban Empire Jan 20, 2017 $7.494% (35%/62%)50,000 .. 100,0000%00:00 (00:00)
580 Shadows of War Jan 2, 2015 $0.594% (35%)20,000 .. 50,0000.71%00:01 (00:00)
581 Fallen: A2P Protocol Aug 14, 2015 $9.994% (34%)20,000 .. 50,0000%00:00 (00:00)
582 CTU: Counter Terrorism Unit Apr 22, 2016 $2.99N/A (N/A)0 .. 20,0000%00:00 (00:00)
583 Into the Void Dec 4, 2015 $4.994% (34%)20,000 .. 50,0000%00:00 (00:00)
584 Arma Tactics Oct 1, 2013 $1.794% (34%/47%)200,000 .. 500,0001.67%01:24 (00:58)
585 Sim Junta Aug 18, 2015 $0.493% (33%)0 .. 20,0000%00:00 (00:00)
586 Ranger of the jungle Jul 18, 2016 $1.19N/A (N/A)0 .. 20,0000%00:00 (00:00)
587 Jagged Alliance Flashback Oct 21, 2014 $3.993% (33%)20,000 .. 50,0005.88%02:01 (00:40)
588 Disciples III - Resurrection Oct 11, 2011 $3.743% (32%/63%)100,000 .. 200,0000%00:00 (00:00)
589 Zombie Zoeds May 20, 2015 $2.993% (31%)200,000 .. 500,0000.58%01:50 (01:39)
590 Psichodelya Aug 8, 2014 $0.993% (31%)100,000 .. 200,0000%00:00 (00:00)
591 Ku: Shroud of the Morrigan Mar 17, 2014 $4.993% (31%)20,000 .. 50,0000%00:00 (00:00)
592 Evopollution Apr 23, 2014 $4.993% (31%)0 .. 20,0000%00:00 (00:00)
593 Ground Pounders Jul 15, 2014 $2.49N/A (N/A)0 .. 20,0000%00:00 (00:00)
594 A Game of Thrones - Genesis Sep 29, 2011 $9.993% (31%)100,000 .. 200,0000%00:00 (00:00)
595 Robotex Nov 19, 2014 $0.493% (31%)100,000 .. 200,0000%00:00 (00:00)
596 Tank Operations: European Campaign Nov 22, 2013 $4.493% (30%)20,000 .. 50,0000%00:00 (00:00)
597 Defenders of Time Nov 4, 2014 N/AN/A (N/A/55%)0 .. 20,0000%00:00 (00:00)
598 Power of Defense Aug 4, 2010 $9.99N/A (N/A)0 .. 20,0000%00:00 (00:00)
599 Solar Shifter EX Sep 11, 2015 $1.992% (28%)20,000 .. 50,0000%00:00 (00:00)
600 Gridberd Sep 7, 2015 $1.742% (26%)200,000 .. 500,0000.12%03:02 (01:00)
601 Hard Truck Apocalypse: Arcade / Ex Machina: Arcade Mar 14, 2014 $0.492% (26%)20,000 .. 50,0000%00:00 (00:00)
602 One Star Apr 17, 2017 $0.5N/A (N/A)50,000 .. 100,0000.33%01:20 (00:26)
603 Zombies on a Plane Mar 25, 2016 $1.242% (25%)0 .. 20,0000%00:00 (00:00)
604 APOX Jan 20, 2011 $14.992% (23%/48%)20,000 .. 50,0000%00:00 (00:00)
605 Elite vs. Freedom May 31, 2016 $0.49N/A (N/A)0 .. 20,0000%00:00 (00:00)
606 The Asskickers-Steam Edition Feb 6, 2015 $1.991% (21%)0 .. 20,0000%00:00 (00:00)
607 Lords of the Black Sun Sep 12, 2014 $4.491% (21%)0 .. 20,0009.09%02:01 (00:40)
608 Star Project Aug 4, 2016 $0.49N/A (N/A)100,000 .. 200,0003.07%04:11 (04:31)
609 Gemini Wars Nov 2, 2012 $2.691% (19%/53%)20,000 .. 50,0000%00:00 (00:00)
610 Human Extinction Simulator Jan 21, 2015 $4.99N/A (N/A)0 .. 20,0000%00:00 (00:00)
611 Tryst Sep 14, 2012 $14.99N/A (N/A/50%)0 .. 20,0000%00:00 (00:00)
612 Prison Tycoon 3: Lockdown Aug 1, 2007 $3.491% (16%)20,000 .. 50,0000%00:00 (00:00)
613 Once Bitten, Twice Dead! Jul 7, 2015 $4.991% (13%)20,000 .. 50,0000%00:00 (00:00)
614 Citadels Jul 25, 2013 $3.741% (12%/20%)20,000 .. 50,0000%00:00 (00:00)
615 Bloodbath Jun 16, 2014 $4.49N/A (N/A)0 .. 20,0000%00:00 (00:00)
616 Magnetic By Nature Nov 10, 2014 $9.99N/A (N/A)20,000 .. 50,0000%00:00 (00:00)

Owners of this game also own:

Access restricted.

This feature is only available to users with special access rights. Sorry.

If you want to proceed, you need to register or log in first and then back Steam Spy on Patreon. Look for Indie or Pro pledge.

Don't forget to use the same email as on Steam Spy!

Playtime distribution:

Access restricted.

This feature is only available to users with special access rights. Sorry.

If you want to proceed, you need to register or log in first and then back Steam Spy on Patreon. Look for Indie or Pro pledge.

Don't forget to use the same email as on Steam Spy!

Playtime (2 weeks):

Access restricted.

This feature is only available to users with special access rights. Sorry.

If you want to proceed, you need to register or log in first and then back Steam Spy on Patreon. Look for Indie or Pro pledge.

Don't forget to use the same email as on Steam Spy!

User reviews:

Login required.

Please register or log in to see this information.